STARLINK-2550 (48293 NORAD) Tracking and Keplerian Element Data

This shows tracking and keplerian element data for the satellite.

Feedback or suggestion? Click here.




ElementValue
Catalog48293
NameSTARLINK-2550
Epoch Orbit197
Epoch Day173.83334491
Epoch Year2021
RAAN257.26
Inclination53.0519
Eccentricity0.0001652
Argument of Perigee40.8088
Mean Anonmoly338.2799
Mean Motion15.72780649
Decay Rate0.00709032
L11 48293U 21036T 21173.83334491 .00709032 00000-0 47251-2 0 9999
L22 48293 53.0519 257.2600 0001652 40.8088 338.2799 15.72780649 1972

Live tracking and technical data element details for STARLINK-2550 (NORAD 48293). STARLINK-2550 can be tracked NOW for your location showing map with azimuth and elevation plus other details from your city location.

Track the satellite on the map from your city or location and see movement details for azimuth, elevation, latitude, longitude, range, height, and movement on the map or in text.







IsCatalogInMostPopularTable: catalog: 48293, numindb: 17
Update: records affected: 1



GetName: 48293 STARLINK-2550

Hit Count: updated at: Thu, 24 Jun 2021 03:13:25 GMT